Location: Harbor View
(36.2448°N, 86.5797°W)
Time: 08:48:16
(UTC+00:00)

GPS 2-04 Rocket1 - Pass Details

Date: 29 October 2020
Orbit: 417 x 546 km, 35.6° (Epoch: 04 December)

Event Time Altitude Azimuth Distance (km) Brightness Sun altitude
Rises 23:30:55 0° 243° (WSW) 2,587 8.0 -8.3°
Reaches altitude 10° 23:33:08 10° 237° (WSW) 1,726 6.6 -8.8°
Maximum altitude 23:36:59 49° 163° (SSE) 684 3.2 -9.5°
Enters shadow 23:40:22 14° 90° (E) 1,559 4.5 -10.2°
